Location: Diebersbach
(48.5163°N, 8.0558°E)
Time: 15:21:29
(UTC+00:00)

NOSS 2-2 (E) - Pass Details

Date: 20 June 2021
Orbit: 448 x 1757 km, 63.3° (Epoch: 30 July)

Event Time Altitude Azimuth Distance (km) Brightness Sun altitude
Exits shadow 02:07:52 11° 244° (WSW) 1,503 5.0 -9.8°
Maximum altitude 02:10:57 46° 319° (NW) 659 3.8 -9.5°
Drops below altitude 10° 02:14:45 10° 34° (NNE) 1,829 7.7 -9.1°
Sets 02:17:17 0° 40° (NE) 2,881 9.5 -8.8°
